Regional Weather Roundup
Issued by NWS

Home | Current Version | Previous Version | Graphics & Text | Print | Product List | Glossary On
Versions: 1 2 3 4 5 6 7 8 9 10 11 12 13 14 15 16 17 18 19 20 21 22 23 24 25 26 27 28 29 30 31 32 33 34 35 36 37 38 39 40 41 42 43 44 45 46 47 48 49 50
000
ASUS43 KOAX 230410
RWRNE

WEATHER ROUNDUP FOR NEBRASKA
NATIONAL WEATHER SERVICE OMAHA NE
1100 PM CDT FRI SEP 22 2017

NOTES: SATELLITE DATA IS BEING USED TO AUGMENT CLOUD COVER ABOVE
       12000 FEET.
       "FAIR" INDICATES FEW OR NO CLOUDS BELOW 12,000 FEET WITH NO
       SIGNIFICANT WEATHER AND/OR OBSTRUCTIONS TO VISIBILITY.


NEZ001>004-019>022-054>056-230500-
NEBRASKA PANHANDLE

CITY           SKY/WX    TMP DP  RH WIND       PRES   REMARKS
SCOTTSBLUFF    CLEAR     54  42  64 N10       29.94R
ALLIANCE       CLOUDY    52  40  63 NE18      29.95R
CHADRON        PTCLDY    50  37  61 NE12      29.98R
GORDON         FAIR      51  40  66 NE13      29.96R
KIMBALL        PTCLDY    56  43  61 N10       29.93R
SIDNEY         PTCLDY    57  46  66 NE18      29.90R
$$

NEZ057>060-069>072-079>082-230500-
SOUTHWEST NEBRASKA

CITY           SKY/WX    TMP DP  RH WIND       PRES   REMARKS
NORTH PLATTE   PTCLDY    65  53  65 NE24G31   29.82R
IMPERIAL       PTCLDY    81  51  35 SE9G20    29.79R
LEXINGTON      PTCLDY    82  59  44 S20       29.79S
MCCOOK         PTCLDY    83  60  45 S21G31    29.78R
OGALLALA       TSTM      62  50  64 NE10G22   29.84R
$$

NEZ005>010-023>029-035>040-094-230500-
NORTH CENTRAL NEBRASKA

CITY           SKY/WX    TMP DP  RH WIND       PRES   REMARKS
VALENTINE      CLOUDY    55  44  66 N10       29.93R
AINSWORTH      LGT RAIN  55  50  83 N13       29.91R
BROKEN BOW     CLOUDY    66  55  67 N14       29.83R
O`NEILL        CLOUDY    62  58  84 NW6       29.87R
ORD            MOCLDY    71  60  68 NW6       29.80R
THEDFORD       CLOUDY    55  50  82 N5        29.91R
$$

NEZ041-046>049-061>064-073>077-083>087-230500-
SOUTH CENTRAL NEBRASKA

CITY           SKY/WX    TMP DP  RH WIND       PRES   REMARKS
GRAND ISLAND   PTCLDY    80  65  59 S16G26    29.84R
AURORA         PTCLDY    80  64  57 S17G24    29.84R
HASTINGS       PTCLDY    82  61  48 S14G26    29.85R
HEBRON         PTCLDY    81  65  59 S14G20    29.87S
HOLDREGE       MOCLDY    80  61  52 S15       29.83R
KEARNEY        PTCLDY    81  63  54 S22G32    29.82R
YORK           CLEAR     81  64  57 S17G23    29.85R
$$

NEZ011>018-030>034-042>045-230500-
NORTHEAST NEBRASKA

CITY           SKY/WX    TMP DP  RH WIND       PRES   REMARKS
NORFOLK        CLOUDY    79  67  66 S15       29.80S
ALBION         PTCLDY    80  66  62 S14       29.82R
BLAIR          CLEAR     81  68  65 S16G25    29.88S
COLUMBUS       CLEAR     80  67  64 SE9       29.84R
FREMONT        CLEAR     80  66  62 SE14G22   29.86R
TEKAMAH        PTCLDY    78  67  68 SE10      29.85R
WAYNE          CLOUDY    80  69  70 S18G26    29.82R
$$

NEZ050>053-065>068-078-088>093-230500-
SOUTHEAST NEBRASKA

CITY           SKY/WX    TMP DP  RH WIND       PRES   REMARKS
LINCOLN        CLEAR     80  67  64 S16       29.87R
OMAHA EPPLEY   CLEAR     81  68  64 S17       29.88R
BEATRICE       CLEAR     80  68  67 S14       29.90R
FALLS CITY     CLEAR     76  69  79 SE8       29.92R
NEBRASKA CITY  CLEAR     77  69  76 S14       29.92R
PLATTSMOUTH    CLEAR     78  69  73 S13G18    29.91R
$$

NEZ044-045-051>053-067-230500-
OMAHA AREA

CITY           SKY/WX    TMP DP  RH WIND       PRES   REMARKS
OMAHA EPPLEY   CLEAR     81  68  64 S17       29.88R
BLAIR          CLEAR     81  68  65 S16G25    29.88S
FREMONT        CLEAR     80  66  62 SE14G22   29.86R
MILLARD        CLEAR     81  70  68 SE12      29.89R
OFFUTT AFB     CLEAR     79  68  69 SE16      29.89R
PLATTSMOUTH    CLEAR     78  69  73 S13G18    29.91R
WAHOO          FAIR      78  66  66 SE16      29.87R
$$




USA.gov is the U.S. government's official web portal to all federal, state and local government web resources and services.